sat.trackr.live / text

‹ back to catalog

STARLINK-30899

NORAD 58420 · 2023-180U

PAYLOAD ACTIVE UNKNOWN

§ Identity

Operator
Country
US
Launch date
2023-11-22
Launch site
AFETR
Launch vehicle
Mass (kg)
RCS (m²)

Purposes: comms

External: N2YO · Heavens-Above · Gunter

§ Orbital elements

Epoch: 2026-05-24T21:23:04.379424Z

Period
94.27 min
Inclination
43.0029°
Eccentricity
0.0001476
Mean motion
15.27565326 rev/d
Perigee alt
482.1 km
Apogee alt
484.1 km
Semi-major
6,861.2 km
B*
1.2677e-4
RAAN
341.8893°
Arg perigee
265.9377°
Mean anomaly
94.1306°
Rev number
13,916

§ Raw data

STARLINK-308991 58420U 23180U   26144.89102291  .00003226  00000+0  12677-3 0  99902 58420  43.0029 341.8893 0001476 265.9377  94.1306 15.27565326139167

JSON: /api/v1/satellites/58420 · /tle

For live sub-satellite position, see the globe view (requires WebGL).

§ Visibility from observer

Set your observer location to see the next 7 days of passes ≥ 10°. The values pass through the URL so the page stays shareable.

No JS? Fill the form by hand. The geolocation button needs JavaScript.